1491681600.62,51678,10.94,73712.3,-5.85,-6.47,-6.47,0,*55
1491681601.82,51679,10.94,73716.3,-5.83,-6.51,-6.59,0,*5A
1491681603.02,51680,10.94,73720.0,-5.83,-6.51,-6.47,0,*53
1491681604.24,51681,11.0,73722.8,-5.85,-6.47,-6.51,0,*54
1491681605.47,51682,10.94,73718.8,-5.85,-6.51,-6.51,0,*50
1491681606.69,51683,10.94,73718.8,-5.85,-6.59,-6.47,0,*5E
1491681607.91,51684,10.94,73722.3,-5.85,-6.59,-6.51,0,*5E
1491681609.11,51685,10.94,73720.8,-5.83,-6.51,-6.51,0,*51
1491681610.32,51686,10.94,73720.3,-5.83,-6.51,-6.59,0,*5A
1491681611.54,51687,10.94,73720.8,-5.85,-6.51,-6.47,0,*52
1491681612.74,51688,10.94,73718.8,-5.83,-6.51,-6.51,0,*5C
1491681613.96,51689,10.94,73716.8,-5.85,-6.47,-6.51,0,*5C
1491681615.18,51690,10.94,73708.8,-5.85,-6.47,-6.47,0,*53
1491681616.41,51691,10.94,73708.8,-5.85,-6.51,-6.51,0,*52
1491681617.64,51692,11.0,73716.8,-5.85,-6.51,-6.51,0,*51
1491681618.84,51693,10.94,73708.8,-5.83,-6.51,-6.51,0,*56
1491681620.04,51694,10.94,73704.5,-5.83,-6.51,-6.51,0,*51
1491681621.27,51695,10.94,73712.3,-5.85,-6.51,-6.59,0,*5E
1491681622.47,51696,10.94,73716.8,-5.83,-6.51,-6.47,0,*54
1491681623.69,51697,10.94,73716.5,-5.85,-6.51,-6.47,0,*53
1491681624.92,51698,10.94,73708.3,-5.85,-6.51,-6.51,0,*5B
1491681626.15,51699,10.94,73708.0,-5.85,-6.51,-6.51,0,*5A
1491681627.37,51700,10.94,73706.5,-5.85,-6.51,-6.47,0,*5C
1491681628.6,51701,10.94,73712.8,-5.85,-6.51,-6.51,0,*5A
1491681629.8,51702,11.0,73718.8,-5.83,-6.51,-6.47,0,*58
1491681631.0,51703,10.94,73708.0,-5.83,-6.59,-6.47,0,*51
1491681632.19,51704,10.94,73718.3,-5.83,-6.47,-6.51,0,*5E
1491681633.42,51705,10.94,73720.0,-5.85,-6.51,-6.51,0,*5E
1491681634.62,51706,10.94,73722.3,-5.83,-6.51,-6.51,0,*5B
1491681635.84,51707,10.94,73718.5,-5.85,-6.59,-6.51,0,*54
1491681637.07,51708,10.94,73712.3,-5.85,-6.51,-6.51,0,*53
1491681638.3,51709,10.94,73722.0,-5.85,-6.51,-6.51,0,*52
1491681639.52,51710,10.94,73722.3,-5.85,-6.51,-6.47,0,*5D
1491681640.74,51711,10.94,73730.5,-5.85,-6.47,-6.51,0,*5C
1491681641.97,51712,10.94,73730.8,-5.85,-6.51,-6.51,0,*58
1491681643.17,51713,10.94,73728.8,-5.83,-6.51,-6.47,0,*58
1491681644.37,51714,10.94,73720.3,-5.83,-6.47,-6.47,0,*58
1491681645.59,51715,10.94,73718.8,-5.85,-6.51,-6.59,0,*57
1491681646.82,51716,10.94,73716.3,-5.85,-6.51,-6.51,0,*5C
1491681648.02,51717,10.94,73716.8,-5.83,-6.51,-6.51,0,*5B
1491681649.22,51718,10.94,73716.0,-5.79,-6.43,-6.51,0,*52
1491681650.45,51719,11.0,73728.3,-5.85,-6.51,-6.47,0,*54
1491681651.67,51720,10.94,73724.3,-5.85,-6.51,-6.47,0,*5E
1491681652.88,51721,10.94,73718.5,-5.83,-6.51,-6.51,0,*5E
1491681654.08,51722,10.94,73714.3,-5.83,-6.51,-6.51,0,*5D
1491681655.3,51723,10.94,73720.3,-5.85,-6.47,-6.51,0,*5D
1491681656.53,51724,10.94,73718.0,-5.85,-6.51,-6.51,0,*5D
1491681657.75,51725,10.94,73716.0,-5.85,-6.51,-6.51,0,*5C
1491681658.98,51726,10.94,73714.3,-5.85,-6.51,-6.51,0,*5F
1491681660.2,51727,10.94,73718.8,-5.85,-6.51,-6.51,0,*5E
1491681661.43,51728,10.94,73722.8,-5.85,-6.51,-6.51,0,*51
1491681662.63,51729,10.94,73722.5,-5.83,-6.51,-6.51,0,*56
1491681663.86,51730,10.94,73726.5,-5.85,-6.51,-6.51,0,*58
1491681665.08,51731,10.94,73728.5,-5.85,-6.47,-6.51,0,*5E
1491681666.3,51732,10.94,73732.3,-5.85,-6.51,-6.51,0,*5A
1491681667.53,51733,11.0,73732.8,-5.85,-6.51,-6.51,0,*5B
1491681668.76,51734,10.94,73722.5,-5.85,-6.51,-6.51,0,*5C
1491681669.98,51735,10.94,73730.5,-5.85,-6.51,-6.51,0,*5D
1491681671.21,51736,10.94,73726.0,-5.85,-6.51,-6.59,0,*56
1491681672.41,51737,10.94,73728.3,-5.87,-6.55,-6.55,0,*5D
1491681673.64,51738,10.94,73738.0,-5.85,-6.51,-6.47,0,*57
1491681674.86,51739,10.94,73746.3,-5.85,-6.59,-6.51,0,*59
1491681676.05,51740,10.94,73740.5,-5.83,-6.47,-6.51,0,*5E
1491681677.27,51741,10.94,73720.8,-5.85,-6.47,-6.47,0,*5E
1491681678.5,51742,10.94,73722.5,-5.85,-6.51,-6.47,0,*5A
1491681679.7,51743,10.94,73722.3,-5.83,-6.51,-6.51,0,*5A
1491681680.92,51744,10.94,73718.8,-5.85,-6.47,-6.47,0,*5B
1491681682.12,51745,10.94,73714.8,-5.83,-6.51,-6.51,0,*5C
1491681683.35,51746,10.94,73718.0,-5.85,-6.59,-6.47,0,*56
1491681684.57,51747,10.94,73716.3,-5.85,-6.51,-6.47,0,*5F
1491681685.8,51748,10.94,73714.8,-5.85,-6.51,-6.51,0,*57
1491681687.0,51749,10.94,73712.8,-5.83,-6.51,-6.47,0,*57
1491681688.22,51750,10.94,73712.8,-5.85,-6.47,-6.51,0,*59
1491681689.44,51751,10.94,73710.0,-5.85,-6.51,-6.47,0,*58
1491681690.67,51752,10.94,73706.8,-5.85,-6.51,-6.51,0,*5C
1491681691.89,51753,10.94,73708.8,-5.85,-6.47,-6.51,0,*5A
1491681693.12,51754,10.94,73708.8,-5.85,-6.51,-6.51,0,*5A
1491681694.34,51755,10.94,73706.5,-5.85,-6.51,-6.51,0,*5B
1491681695.57,51756,10.94,73706.3,-5.85,-6.51,-6.47,0,*5F
1491681696.79,51757,10.94,73698.0,-5.85,-6.51,-6.51,0,*59
1491681698.01,51758,10.94,73690.3,-5.85,-6.47,-6.47,0,*56
1491681699.23,51759,10.94,73690.8,-5.85,-6.47,-6.47,0,*57
1491681700.43,51760,10.94,73702.0,-5.83,-6.59,-6.47,0,*54
1491681701.63,51761,10.94,73700.3,-5.83,-6.51,-6.51,0,*5A
1491681702.84,51762,10.94,73710.5,-5.83,-6.51,-6.51,0,*59
1491681704.06,51763,10.94,73708.3,-5.85,-6.47,-6.47,0,*5E
1491681705.28,51764,10.94,73708.0,-5.85,-6.47,-6.51,0,*5E
1491681706.5,51765,10.94,73698.3,-5.85,-6.51,-6.47,0,*5F
1491681707.7,51766,10.94,73712.0,-5.87,-6.55,-6.55,0,*59
1491681708.93,51767,10.94,73710.5,-5.85,-6.51,-6.51,0,*5A
1491681710.13,51768,10.94,73708.3,-5.83,-6.51,-6.51,0,*53
1491681711.33,51769,10.94,73716.3,-5.83,-6.47,-6.59,0,*5D
1491681712.55,51770,10.94,73734.3,-5.85,-6.51,-6.51,0,*5C
1491681713.78,51771,10.94,73732.5,-5.85,-6.51,-6.51,0,*5D
1491681714.98,51772,10.94,73714.3,-5.83,-6.51,-6.47,0,*5F
1491681716.2,51773,10.94,73724.8,-5.85,-6.47,-6.51,0,*58
1491681717.42,51774,10.94,73716.5,-5.85,-6.47,-6.59,0,*57
1491681718.62,51775,10.94,73724.8,-5.83,-6.51,-6.51,0,*5F
1491681719.85,51776,10.94,73728.8,-5.85,-6.51,-6.51,0,*5A
1491681721.05,51777,10.94,73722.0,-5.83,-6.51,-6.51,0,*5D
1491681722.28,51778,10.94,73724.5,-5.85,-6.51,-6.51,0,*54
1491681723.5,51779,10.94,73728.5,-5.85,-6.51,-6.51,0,*55
1491681724.73,51780,10.94,73734.0,-5.85,-6.51,-6.51,0,*53
1491681725.96,51781,10.94,73718.5,-5.85,-6.51,-6.51,0,*52
1491681727.15,51782,10.94,73722.0,-5.83,-6.47,-6.51,0,*50
1491681728.36,51783,10.94,73726.5,-5.83,-6.51,-6.51,0,*56
1491681729.58,51784,10.94,73724.8,-5.85,-6.51,-6.51,0,*57
1491681730.81,51785,10.94,73720.8,-5.85,-6.51,-6.47,0,*51
1491681732.03,51786,10.94,73720.5,-5.85,-6.47,-6.51,0,*52
1491681733.25,51787,11.0,73730.8,-5.85,-6.59,-6.51,0,*5C
1491681734.47,51788,10.94,73712.8,-5.85,-6.51,-6.47,0,*5C
1491681735.7,51789,10.94,73704.0,-5.85,-6.51,-6.51,0,*5A
1491681736.92,51790,10.94,73702.8,-5.85,-6.47,-6.47,0,*52
1491681738.14,51791,10.94,73708.8,-5.85,-6.59,-6.51,0,*5B
1491681739.37,51792,10.94,73700.8,-5.85,-6.51,-6.59,0,*58
1491681740.59,51793,10.94,73710.3,-5.85,-6.51,-6.47,0,*56
1491681741.81,51794,10.94,73712.8,-5.85,-6.47,-6.51,0,*51
1491681743.04,51795,11.0,73718.0,-5.85,-6.51,-6.51,0,*57
1491681744.27,51796,10.94,73720.3,-5.85,-6.51,-6.51,0,*54
1491681745.49,51797,10.94,73712.5,-5.85,-6.51,-6.47,0,*52
1491681746.72,51798,10.94,73714.8,-5.85,-6.51,-6.51,0,*5A
1491681747.94,51799,10.94,73706.5,-5.85,-6.51,-6.51,0,*5B
1491681749.14,51800,10.94,73706.0,-5.87,-6.55,-6.51,0,*52
1491681750.35,51801,10.94,73712.3,-5.83,-6.51,-6.51,0,*53
1491681751.57,51802,10.94,73712.0,-5.85,-6.51,-6.51,0,*56
1491681752.8,51803,10.94,73714.0,-5.85,-6.51,-6.51,0,*57
1491681754.0,51804,10.94,73712.3,-5.83,-6.47,-6.51,0,*51
1491681755.22,51805,10.94,73722.5,-5.85,-6.51,-6.51,0,*51
1491681756.45,51806,10.94,73726.3,-5.85,-6.51,-6.51,0,*52
1491681757.67,51807,10.94,73720.3,-5.85,-6.51,-6.51,0,*53
1491681758.9,51808,10.94,73718.3,-5.85,-6.51,-6.51,0,*5C
1491681760.1,51809,10.94,73724.0,-5.83,-6.51,-6.47,0,*5C
1491681761.33,51810,10.94,73722.3,-5.85,-6.51,-6.51,0,*55
1491681762.55,51811,10.94,73726.0,-5.85,-6.51,-6.51,0,*54
1491681763.78,51812,10.94,73718.0,-5.85,-6.59,-6.47,0,*58
1491681764.98,51813,10.94,73724.8,-5.83,-6.51,-6.51,0,*50
1491681766.2,51814,10.94,73732.8,-5.85,-6.51,-6.51,0,*51
1491681767.43,51815,10.94,73734.0,-5.85,-6.51,-6.51,0,*50
1491681768.65,51816,10.94,73728.5,-5.85,-6.47,-6.47,0,*53
1491681769.88,51817,10.94,73734.8,-5.85,-6.51,-6.47,0,*55
1491681771.1,51818,10.94,73730.0,-5.85,-6.47,-6.51,0,*5A
1491681772.32,51819,10.94,73732.3,-5.85,-6.51,-6.47,0,*5B
1491681773.55,51820,10.94,73726.0,-5.85,-6.51,-6.51,0,*56
1491681774.77,51821,10.94,73706.5,-5.85,-6.47,-6.51,0,*50
1491681775.99,51822,10.94,73706.5,-5.85,-6.51,-6.47,0,*53
1491681777.21,51823,10.94,73712.8,-5.85,-6.47,-6.51,0,*52
1491681778.43,51824,10.94,73720.3,-5.85,-6.47,-6.47,0,*52
1491681779.66,51825,10.94,73714.8,-5.85,-6.51,-6.51,0,*53
1491681780.88,51826,10.94,73694.0,-5.85,-6.51,-6.47,0,*57
1491681782.11,51827,10.94,73696.3,-5.85,-6.51,-6.51,0,*51
1491681783.31,51828,10.94,73696.8,-5.87,-6.51,-6.55,0,*58
1491681784.54,51829,10.94,73688.8,-5.85,-6.51,-6.51,0,*5F
1491681785.74,51830,10.94,73688.8,-5.83,-6.51,-6.51,0,*51
1491681786.97,51831,10.94,73710.3,-5.85,-6.51,-6.51,0,*56
1491681788.17,51832,10.94,73710.8,-5.83,-6.51,-6.51,0,*53
1491681789.4,51833,10.94,73710.8,-5.85,-6.51,-6.51,0,*54
1491681790.59,51834,10.94,73714.3,-5.83,-6.47,-6.51,0,*52
1491681791.82,51835,10.94,73724.0,-5.85,-6.51,-6.47,0,*55
1491681793.04,51836,10.94,73724.5,-5.85,-6.47,-6.51,0,*56
1491681794.26,51837,10.94,73722.0,-5.85,-6.51,-6.47,0,*57
1491681795.49,51838,10.94,73718.3,-5.85,-6.51,-6.47,0,*58
1491681796.71,51839,10.94,73716.0,-5.85,-6.51,-6.47,0,*59
1491681797.93,51840,10.94,73716.5,-5.85,-6.47,-6.47,0,*50
1491681799.16,51841,10.94,73712.3,-5.85,-6.51,-6.47,0,*56
1491681800.39,51842,10.94,73718.0,-5.85,-6.51,-6.51,0,*52
1491681801.61,51843,10.94,73716.0,-5.85,-6.51,-6.51,0,*53
1491681802.84,51844,10.94,73718.8,-5.85,-6.51,-6.51,0,*54
1491681804.06,51845,10.94,73722.5,-5.85,-6.47,-6.47,0,*55
1491681805.28,51846,10.94,73722.8,-5.85,-6.47,-6.47,0,*56
1491681806.5,51847,10.94,73726.8,-5.85,-6.51,-6.47,0,*50
1491681807.73,51848,10.94,73728.8,-5.85,-6.51,-6.47,0,*5F
1491681808.95,51849,10.94,73730.8,-5.85,-6.51,-6.51,0,*59
1491681810.18,51850,10.94,73710.5,-5.85,-6.51,-6.47,0,*56
1491681811.4,51851,10.94,73694.5,-5.85,-6.51,-6.51,0,*50
1491681812.62,51852,10.94,73704.3,-5.85,-6.47,-6.51,0,*54
1491681813.85,51853,10.94,73714.8,-5.85,-6.59,-6.51,0,*5A
1491681815.07,51854,10.94,73712.8,-5.85,-6.51,-6.51,0,*55
1491681816.3,51855,10.94,73718.3,-5.85,-6.51,-6.51,0,*54
1491681817.53,51856,10.94,73712.0,-5.85,-6.51,-6.51,0,*57
1491681818.75,51857,10.94,73710.0,-5.85,-6.51,-6.47,0,*51
1491681819.98,51858,10.94,73718.8,-5.85,-6.51,-6.51,0,*59
1491681821.2,51859,10.94,73710.8,-5.85,-6.51,-6.51,0,*58
1491681822.41,51860,10.94,73712.5,-5.87,-6.55,-6.51,0,*54
1491681823.61,51861,10.94,73718.3,-5.87,-6.55,-6.51,0,*55
1491681824.81,51862,10.94,73706.3,-5.87,-6.55,-6.55,0,*52
1491681826.01,51863,10.94,73716.5,-5.87,-6.55,-6.55,0,*53
1491681827.24,51864,10.94,73706.8,-5.85,-6.51,-6.47,0,*51
1491681828.46,51865,10.94,73700.3,-5.85,-6.47,-6.51,0,*50
1491681829.66,51866,10.94,73700.8,-5.87,-6.55,-6.51,0,*52
1491681830.86,51867,10.94,73702.5,-5.87,-6.55,-6.51,0,*53
1491681832.06,51868,10.94,73710.5,-5.87,-6.55,-6.55,0,*58
1491681833.26,51869,10.94,73720.0,-5.87,-6.55,-6.55,0,*59
1491681834.49,51870,10.94,73708.0,-5.85,-6.51,-6.51,0,*53
1491681835.71,51871,10.94,73712.3,-5.85,-6.51,-6.47,0,*55
1491681836.94,51872,10.94,73712.8,-5.85,-6.51,-6.47,0,*56
1491681838.16,51873,10.94,73700.5,-5.85,-6.51,-6.51,0,*50
1491681839.38,51874,10.94,73714.3,-5.85,-6.47,-6.51,0,*50
1491681840.61,51875,10.94,73704.8,-5.85,-6.51,-6.51,0,*56
1491681841.83,51876,10.94,73704.0,-5.85,-6.47,-6.51,0,*52
1491681843.06,51877,10.94,73702.0,-5.85,-6.51,-6.47,0,*53
1491681844.28,51878,10.94,73696.3,-5.85,-6.47,-6.51,0,*5C
1491681845.5,51879,10.94,73690.5,-5.85,-6.47,-6.51,0,*5D
1491681846.7,51880,10.94,73698.5,-5.87,-6.55,-6.51,0,*5A
1491681847.9,51881,10.94,73696.8,-5.87,-6.55,-6.51,0,*5B
1491681849.13,51882,10.94,73686.8,-5.85,-6.51,-6.47,0,*59
1491681850.35,51883,10.94,73694.3,-5.85,-6.47,-6.51,0,*58
1491681851.57,51884,10.94,73696.5,-5.85,-6.51,-6.51,0,*58
1491681852.8,51885,10.94,73704.0,-5.85,-6.51,-6.47,0,*5E
1491681854.02,51886,10.94,73700.5,-5.85,-6.47,-6.51,0,*5D
1491681855.24,51887,10.94,73700.3,-5.85,-6.51,-6.51,0,*5B
1491681856.45,51888,10.94,73698.0,-5.83,-6.51,-6.51,0,*52
1491681857.67,51889,10.94,73692.5,-5.85,-6.47,-6.51,0,*52
1491681858.89,51890,10.94,73690.0,-5.85,-6.51,-6.51,0,*5D
1491681860.09,51891,10.94,73692.8,-5.83,-6.51,-6.47,0,*5D
1491681861.31,51892,10.94,73688.8,-5.85,-6.47,-6.51,0,*58
1491681862.53,51893,10.94,73692.5,-5.85,-6.47,-6.51,0,*59
1491681863.76,51894,10.94,73692.0,-5.85,-6.51,-6.47,0,*5E
1491681864.98,51895,10.94,73688.8,-5.85,-6.51,-6.39,0,*56
1491681866.21,51896,10.94,73692.3,-5.87,-6.51,-6.63,0,*58
1491681867.41,51897,10.94,73698.5,-5.87,-6.55,-6.51,0,*5C
1491681868.61,51898,10.94,73704.8,-5.87,-6.55,-6.55,0,*57
1491681869.82,51899,10.94,73700.3,-5.87,-6.51,-6.51,0,*56
1491681871.02,51900,10.94,73710.0,-5.87,-6.51,-6.51,0,*57
1491681872.25,51901,10.94,73710.3,-5.85,-6.51,-6.51,0,*54
1491681873.46,51902,10.94,73700.8,-5.87,-6.51,-6.55,0,*51
1491681874.66,51903,10.94,73714.0,-5.87,-6.55,-6.51,0,*50
1491681875.86,51904,10.94,73720.3,-5.87,-6.51,-6.55,0,*57
1491681877.08,51905,10.94,73722.8,-5.85,-6.59,-6.51,0,*58
1491681878.31,51906,10.94,73720.5,-5.85,-6.51,-6.47,0,*54
1491681879.53,51907,10.94,73726.5,-5.85,-6.47,-6.51,0,*55
1491681880.75,51908,10.94,73720.0,-5.85,-6.47,-6.47,0,*5D
1491681881.95,51909,10.94,73712.8,-5.83,-6.51,-6.47,0,*5D
1491681883.15,51910,10.94,73712.5,-5.87,-6.55,-6.55,0,*56
1491681884.36,51911,10.94,73716.5,-5.87,-6.51,-6.55,0,*53
1491681885.58,51912,10.94,73718.5,-5.85,-6.47,-6.47,0,*56
1491681886.8,51913,10.94,73712.3,-5.85,-6.51,-6.47,0,*50
1491681888.03,51914,10.94,73716.3,-5.85,-6.51,-6.47,0,*57
1491681889.23,51915,10.94,73706.8,-5.87,-6.55,-6.55,0,*53
1491681890.43,51916,10.94,73714.8,-5.87,-6.51,-6.51,0,*50
1491681891.64,51917,10.94,73710.3,-5.87,-6.51,-6.55,0,*55
1491681892.84,51918,10.94,73724.3,-5.87,-6.55,-6.51,0,*5A
1491681894.04,51919,10.94,73716.5,-5.87,-6.55,-6.51,0,*5B
1491681895.24,51920,10.94,73712.8,-5.87,-6.55,-6.51,0,*51
1491681896.44,51921,10.94,73718.8,-5.87,-6.55,-6.55,0,*54
1491681897.65,51922,10.94,73712.8,-5.87,-6.55,-6.51,0,*53
1491681898.87,51923,10.94,73718.8,-5.85,-6.51,-6.47,0,*53
1491681900.09,51924,10.94,73710.0,-5.85,-6.47,-6.47,0,*53
1491681901.32,51925,10.94,73712.5,-5.85,-6.51,-6.51,0,*52
1491681902.54,51926,10.94,73716.8,-5.85,-6.47,-6.47,0,*51
1491681903.76,51927,10.94,73718.8,-5.85,-6.47,-6.51,0,*57
1491681904.98,51928,10.94,73714.3,-5.85,-6.51,-6.47,0,*58
1491681906.19,51929,10.94,73720.0,-5.87,-6.51,-6.55,0,*58
1491681907.39,51930,10.94,73726.8,-5.87,-6.51,-6.51,0,*54
1491681908.6,51931,10.94,73722.8,-5.83,-6.51,-6.51,0,*51
1491681909.82,51932,10.94,73724.3,-5.85,-6.47,-6.51,0,*53
1491681911.04,51933,10.94,73718.8,-5.85,-6.51,-6.47,0,*52
1491681912.24,51934,10.94,73718.8,-5.87,-6.55,-6.51,0,*54
1491681913.45,51935,10.94,73714.3,-5.87,-6.51,-6.55,0,*55
1491681914.65,51936,10.94,73716.3,-5.87,-6.55,-6.51,0,*56
1491681915.85,51937,10.94,73718.0,-5.87,-6.51,-6.55,0,*57
1491681917.07,51938,10.94,73718.0,-5.85,-6.47,-6.51,0,*59
1491681918.3,51939,10.94,73714.0,-5.85,-6.51,-6.47,0,*58
1491681919.52,51940,10.94,73708.8,-5.85,-6.51,-6.47,0,*56
1491681920.73,51941,10.94,73710.8,-5.87,-6.51,-6.55,0,*56
1491681921.93,51942,10.94,73708.8,-5.87,-6.51,-6.55,0,*55
1491681923.14,51943,10.94,73716.0,-5.87,-6.55,-6.55,0,*50
1491681924.34,51944,10.94,73716.5,-5.87,-6.55,-6.55,0,*57
1491681925.54,51945,10.94,73720.8,-5.87,-6.51,-6.55,0,*52
1491681926.75,51946,10.94,73726.0,-5.87,-6.51,-6.55,0,*51
1491681927.96,51947,10.94,73726.0,-5.85,-6.47,-6.51,0,*51
1491681929.19,51948,10.94,73726.3,-5.85,-6.51,-6.51,0,*59
1491681930.42,51949,10.94,73722.5,-5.85,-6.51,-6.47,0,*5F
1491681931.64,51950,10.94,73714.5,-5.85,-6.51,-6.47,0,*57
1491681932.86,51951,10.94,73708.0,-5.85,-6.47,-6.47,0,*51
1491681934.08,51952,10.94,73714.8,-5.85,-6.47,-6.47,0,*52
1491681935.3,51953,10.94,73710.3,-5.85,-6.47,-6.47,0,*53
1491681936.53,51954,10.94,73704.5,-5.85,-6.51,-6.51,0,*54
1491681937.75,51955,10.94,73706.0,-5.85,-6.47,-6.47,0,*55
1491681938.97,51956,10.94,73708.0,-5.85,-6.51,-6.47,0,*51
1491681940.17,51957,10.94,73722.8,-5.83,-6.47,-6.47,0,*51
1491681941.39,51958,10.94,73714.8,-5.85,-6.51,-6.51,0,*58
1491681942.62,51959,10.94,73708.0,-5.85,-6.51,-6.51,0,*59
1491681943.84,51960,10.94,73710.8,-5.85,-6.47,-6.51,0,*54
1491681945.07,51961,10.94,73720.8,-5.85,-6.51,-6.47,0,*55
1491681946.29,51962,10.94,73722.8,-5.85,-6.47,-6.51,0,*56
1491681947.5,51963,10.94,73720.0,-5.85,-6.47,-6.47,0,*50
1491681948.72,51964,10.94,73716.8,-5.85,-6.47,-6.47,0,*57
1491681949.95,51965,10.94,73720.8,-5.85,-6.51,-6.51,0,*56
1491681951.18,51966,10.94,73714.8,-5.85,-6.51,-6.51,0,*55
1491681952.39,51967,10.94,73710.3,-5.85,-6.47,-6.47,0,*54
1491681953.61,51968,10.94,73714.5,-5.85,-6.47,-6.51,0,*5C
1491681954.82,51969,10.94,73728.3,-5.83,-6.51,-6.47,0,*5B
1491681956.04,51970,10.94,73710.0,-5.85,-6.47,-6.47,0,*52
1491681957.26,51971,10.94,73712.3,-5.85,-6.51,-6.47,0,*54
1491681958.49,51972,10.94,73714.5,-5.85,-6.51,-6.51,0,*50
1491681959.69,51973,10.94,73714.8,-5.87,-6.51,-6.51,0,*53
1491681960.9,51974,10.94,73718.0,-5.87,-6.51,-6.55,0,*50
1491681962.1,51975,10.94,73712.5,-5.87,-6.55,-6.51,0,*51
1491681963.31,51976,10.94,73722.0,-5.87,-6.51,-6.51,0,*56
1491681964.53,51977,10.94,73720.8,-5.85,-6.51,-6.47,0,*52
1491681965.76,51978,10.94,73716.8,-5.85,-6.51,-6.47,0,*5D
1491681966.98,51979,10.94,73718.3,-5.85,-6.51,-6.51,0,*5B
1491681968.19,51980,10.94,73724.0,-5.87,-6.51,-6.51,0,*5F
1491681969.39,51981,10.94,73720.5,-5.87,-6.55,-6.55,0,*5E
1491681970.61,51982,10.94,73724.0,-5.85,-6.51,-6.47,0,*58
1491681971.84,51983,10.94,73720.3,-5.85,-6.51,-6.39,0,*50
1491681973.06,51984,10.94,73722.0,-5.85,-6.47,-6.51,0,*5E
1491681974.28,51985,10.94,73728.5,-5.85,-6.47,-6.51,0,*5F
1491681975.5,51986,10.94,73728.3,-5.85,-6.47,-6.51,0,*5C
1491681976.72,51987,10.94,73738.3,-5.85,-6.47,-6.47,0,*5A
1491681977.94,51988,10.94,73724.5,-5.85,-6.47,-6.47,0,*55
1491681979.16,51989,10.94,73720.8,-5.85,-6.51,-6.47,0,*53
1491681980.36,51990,10.94,73724.8,-5.83,-6.51,-6.47,0,*5D
1491681981.58,51991,10.94,73728.3,-5.85,-6.47,-6.47,0,*5D
1491681982.81,51992,10.94,73714.8,-5.85,-6.51,-6.47,0,*59
1491681984.03,51993,10.94,73704.5,-5.85,-6.51,-6.51,0,*5F
1491681985.26,51994,10.94,73712.3,-5.85,-6.51,-6.47,0,*5F
1491681986.49,51995,10.94,73718.8,-5.85,-6.51,-6.47,0,*5E
1491681987.71,51996,10.94,73718.3,-5.85,-6.51,-6.51,0,*5A
1491681988.91,51997,10.94,73714.8,-5.83,-6.51,-6.47,0,*5A
1491681990.13,51998,10.94,73716.5,-5.85,-6.47,-6.47,0,*54
1491681991.36,51999,10.94,73708.5,-5.85,-6.51,-6.51,0,*55
1491681992.56,52000,10.94,73706.5,-5.83,-6.47,-6.47,0,*59
1491681993.76,52001,10.94,73710.0,-5.87,-6.55,-6.51,0,*58
1491681994.96,52002,10.94,73718.3,-5.87,-6.51,-6.51,0,*5F
1491681996.19,52003,10.94,73722.3,-5.85,-6.51,-6.47,0,*5B
1491681997.41,52004,10.94,73724.5,-5.85,-6.51,-6.51,0,*5B
1491681998.63,52005,10.94,73720.5,-5.85,-6.47,-6.47,0,*5A
1491681999.85,52006,10.94,73718.5,-5.85,-6.47,-6.51,0,*5E
1491682001.08,52007,10.94,73714.0,-5.85,-6.51,-6.51,0,*58
1491682002.31,52008,10.94,73708.5,-5.85,-6.51,-6.51,0,*57
1491682003.53,52009,10.94,73708.3,-5.85,-6.51,-6.47,0,*51
1491682004.75,52010,10.94,73708.5,-5.85,-6.47,-6.47,0,*5E
1491682005.97,52011,10.94,73722.8,-5.85,-6.47,-6.47,0,*5F
1491682007.2,52012,10.94,73720.8,-5.85,-6.51,-6.47,0,*5B
1491682008.42,52013,10.94,73712.0,-5.85,-6.47,-6.51,0,*5A
1491682009.64,52014,10.94,73708.8,-5.85,-6.51,-6.47,0,*5D
1491682010.84,52015,10.94,73714.0,-5.87,-6.55,-6.51,0,*5D
1491682012.06,52016,10.94,73712.8,-5.85,-6.47,-6.47,0,*58
1491682013.26,52017,10.94,73718.3,-5.83,-6.47,-6.47,0,*5F
1491682014.48,52018,10.94,73706.0,-5.85,-6.51,-6.47,0,*51
1491682015.69,52019,10.94,73704.3,-5.83,-6.51,-6.47,0,*56
1491682016.91,52020,10.94,73702.8,-5.85,-6.47,-6.51,0,*5A
1491682018.13,52021,10.94,73708.8,-5.85,-6.47,-6.51,0,*5B
1491682019.35,52022,10.94,73712.0,-5.85,-6.47,-6.47,0,*5F
1491682020.57,52023,10.94,73704.5,-5.85,-6.51,-6.47,0,*59
1491682021.76,52024,10.94,73700.3,-5.83,-6.39,-6.47,0,*56
1491682022.99,52025,10.94,73692.8,-5.85,-6.47,-6.47,0,*58
1491682024.21,52026,10.94,73704.3,-5.85,-6.47,-6.51,0,*5C
1491682025.43,52027,10.94,73682.3,-5.85,-6.51,-6.51,0,*5A
1491682026.65,52028,10.94,73688.5,-5.85,-6.47,-6.47,0,*55
1491682027.88,52029,10.94,73710.3,-5.85,-6.51,-6.47,0,*53
1491682029.1,52030,10.94,73714.8,-5.85,-6.47,-6.47,0,*5C
1491682030.29,52031,10.94,73720.5,-5.83,-6.47,-6.47,0,*5B
1491682031.49,52032,10.94,73720.5,-5.87,-6.55,-6.55,0,*5C
1491682032.69,52033,10.94,73718.8,-5.87,-6.55,-6.55,0,*5D
1491682033.9,52034,10.94,73728.0,-5.87,-6.51,-6.51,0,*5A
1491682035.1,52035,10.94,73718.0,-5.87,-6.51,-6.55,0,*5F
1491682036.3,52036,10.94,73708.3,-5.83,-6.59,-6.51,0,*54
1491682037.52,52037,10.94,73706.5,-5.85,-6.47,-6.47,0,*5B
1491682038.72,52038,10.94,73704.3,-5.83,-6.47,-6.51,0,*55
1491682039.94,52039,10.94,73710.5,-5.85,-6.47,-6.47,0,*55
1491682041.16,52040,10.94,73718.8,-5.85,-6.47,-6.51,0,*5C
1491682042.38,52041,10.94,73706.5,-5.85,-6.51,-6.47,0,*5D
1491682043.6,52042,10.94,73702.0,-5.85,-6.47,-6.47,0,*59
1491682044.82,52043,10.94,73702.3,-5.85,-6.47,-6.47,0,*58
1491682046.04,52044,10.94,73702.0,-5.85,-6.47,-6.47,0,*5F
1491682047.24,52045,10.94,73698.5,-5.83,-6.51,-6.47,0,*5F
1491682048.46,52046,10.94,73700.0,-5.85,-6.47,-6.51,0,*5A
1491682049.68,52047,10.94,73700.8,-5.85,-6.47,-6.47,0,*5C
1491682050.9,52048,10.94,73708.3,-5.85,-6.47,-6.47,0,*53
1491682052.13,52049,10.94,73704.5,-5.85,-6.51,-6.51,0,*52
1491682053.36,52050,10.94,73706.3,-5.85,-6.51,-6.47,0,*5D
1491682054.57,52051,10.94,73696.5,-5.85,-6.39,-6.47,0,*52
1491682055.79,52052,10.94,73704.5,-5.85,-6.47,-6.47,0,*58
1491682056.99,52053,10.94,73708.0,-5.83,-6.47,-6.47,0,*5F
1491682058.21,52054,10.94,73712.0,-5.85,-6.47,-6.51,0,*59
1491682059.43,52055,10.94,73710.0,-5.85,-6.47,-6.51,0,*58
1491682060.65,52056,10.94,73706.3,-5.85,-6.47,-6.47,0,*5C
1491682061.87,52057,10.94,73706.0,-5.85,-6.51,-6.51,0,*5D
1491682063.1,52058,10.94,73708.8,-5.85,-6.47,-6.51,0,*55
1491682064.3,52059,10.94,73710.8,-5.83,-6.51,-6.47,0,*52
1491682065.52,52060,10.94,73702.5,-5.85,-6.51,-6.51,0,*59
1491682066.74,52061,10.94,73702.8,-5.85,-6.47,-6.47,0,*58
1491682067.97,52062,10.94,73702.8,-5.85,-6.51,-6.47,0,*5C
1491682069.19,52063,10.94,73710.0,-5.85,-6.51,-6.51,0,*5A
1491682070.42,52064,10.94,73708.0,-5.85,-6.51,-6.47,0,*5A
1491682071.64,52065,10.94,73714.8,-5.85,-6.47,-6.51,0,*5B
1491682072.87,52066,10.94,73714.0,-5.85,-6.51,-6.47,0,*58
1491682074.06,52067,10.94,73710.8,-5.83,-6.47,-6.47,0,*58
1491682075.26,52068,10.94,73712.0,-5.83,-6.51,-6.51,0,*57
1491682076.48,52069,10.94,73714.0,-5.85,-6.47,-6.47,0,*50
1491682077.7,52070,10.94,73712.3,-5.85,-6.47,-6.47,0,*58
1491682078.92,52071,10.94,73710.5,-5.85,-6.47,-6.51,0,*5E
1491682080.14,52072,10.94,73700.5,-5.85,-6.47,-6.51,0,*5D
1491682081.37,52073,10.94,73712.8,-5.85,-6.51,-6.47,0,*5C
1491682082.57,52074,10.94,73716.3,-5.83,-6.51,-6.47,0,*5D
1491682083.8,52075,10.94,73720.3,-5.85,-6.51,-6.51,0,*5D
1491682085.02,52076,10.94,73718.5,-5.85,-6.47,-6.51,0,*59
1491682086.21,52077,10.94,73706.0,-5.83,-6.47,-6.51,0,*5E
1491682087.41,52078,10.94,73714.3,-5.83,-6.51,-6.47,0,*51
1491682088.63,52079,10.94,73708.8,-5.85,-6.47,-6.47,0,*51
1491682089.85,52080,10.94,73702.8,-5.85,-6.47,-6.51,0,*50
1491682091.07,52081,10.94,73708.0,-5.85,-6.47,-6.47,0,*56
1491682092.3,52082,10.94,73708.3,-5.85,-6.51,-6.47,0,*52
1491682093.52,52083,10.94,73714.0,-5.85,-6.51,-6.47,0,*53
1491682094.75,52084,10.94,73714.5,-5.85,-6.47,-6.51,0,*54
1491682095.94,52085,10.94,73716.0,-5.83,-6.47,-6.47,0,*54
1491682097.17,52086,10.94,73720.5,-5.85,-6.51,-6.47,0,*56
1491682098.39,52087,10.94,73710.5,-5.85,-6.51,-6.47,0,*57
1491682099.61,52088,10.94,73696.3,-5.85,-6.47,-6.47,0,*5F
1491682100.83,52089,10.94,73696.3,-5.85,-6.47,-6.51,0,*59
1491682102.03,52090,10.94,73694.8,-5.83,-6.47,-6.51,0,*57
1491682103.25,52091,10.94,73708.8,-5.85,-6.51,-6.51,0,*57